FIN724 EGLL-EFHK

Flight info

Callsign FIN724
Flight time 2h 0m
Altitude 39000
Route BPK Q295 MATCH P144 SAMHO DCT LARGA DCT SOPTO DCT RIRIP Y364 LAKUT
Aircraft A333/H-SDE3GHIJ2J3J5M1RVWXY/LB2D1

Departure

Time 2026-05-07 14:37
Airport London Heathrow Airport (EGLL)

Arrival

Time 2026-05-07 16:38
Airport Helsinki Vantaa Airport (EFHK)
Time Latitude Longitude Altitude Speed Heading
2026-05-07 14:07 51.46940 -0.44199 92 ft 0 kts 271°
2026-05-07 14:16 51.46940 -0.44193 95 ft 2 kts 270°
2026-05-07 14:16 51.46940 -0.44171 92 ft 2 kts 270°
2026-05-07 14:16 51.46940 -0.44150 92 ft 2 kts 270°
2026-05-07 14:17 51.46940 -0.44128 92 ft 2 kts 270°
2026-05-07 14:17 51.46940 -0.44107 92 ft 2 kts 270°
2026-05-07 14:17 51.46940 -0.44085 92 ft 2 kts 255°
2026-05-07 14:17 51.46944 -0.44065 93 ft 2 kts 225°
2026-05-07 14:18 51.46947 -0.44056 93 ft 2 kts 199°
2026-05-07 14:18 51.46936 -0.44057 93 ft 0 kts 181°
2026-05-07 14:23 51.46935 -0.44057 93 ft 1 kts 181°
2026-05-07 14:23 51.46913 -0.44057 94 ft 5 kts 181°
2026-05-07 14:23 51.46869 -0.44057 96 ft 7 kts 179°
2026-05-07 14:24 51.46807 -0.44054 94 ft 11 kts 178°
2026-05-07 14:24 51.46718 -0.44057 92 ft 13 kts 185°
2026-05-07 14:24 51.46668 -0.44141 93 ft 10 kts 263°
2026-05-07 14:24 51.46667 -0.44253 93 ft 10 kts 270°
2026-05-07 14:25 51.46667 -0.44360 94 ft 9 kts 270°
2026-05-07 14:25 51.46667 -0.44465 95 ft 9 kts 269°
2026-05-07 14:25 51.46666 -0.44571 96 ft 10 kts 269°
2026-05-07 14:25 51.46665 -0.44680 97 ft 10 kts 269°
2026-05-07 14:26 51.46665 -0.44796 98 ft 11 kts 269°
2026-05-07 14:26 51.46664 -0.44928 98 ft 13 kts 269°
2026-05-07 14:26 51.46664 -0.45084 97 ft 15 kts 270°
2026-05-07 14:26 51.46664 -0.45272 94 ft 18 kts 270°
2026-05-07 14:27 51.46663 -0.45493 91 ft 22 kts 270°
2026-05-07 14:27 51.46661 -0.45733 90 ft 19 kts 270°
2026-05-07 14:27 51.46661 -0.45932 90 ft 18 kts 269°
2026-05-07 14:27 51.46660 -0.46136 96 ft 18 kts 269°
2026-05-07 14:28 51.46659 -0.46331 99 ft 17 kts 270°
2026-05-07 14:28 51.46660 -0.46523 101 ft 17 kts 270°
2026-05-07 14:28 51.46659 -0.46719 101 ft 18 kts 270°
2026-05-07 14:28 51.46658 -0.46932 100 ft 20 kts 269°
2026-05-07 14:29 51.46657 -0.47172 95 ft 23 kts 269°
2026-05-07 14:29 51.46656 -0.47443 92 ft 25 kts 269°
2026-05-07 14:29 51.46654 -0.47699 93 ft 23 kts 269°
2026-05-07 14:29 51.46653 -0.47949 96 ft 22 kts 270°
2026-05-07 14:30 51.46652 -0.48102 98 ft 0 kts 270°
2026-05-07 14:31 51.46652 -0.48147 96 ft 10 kts 270°
2026-05-07 14:31 51.46653 -0.48261 97 ft 10 kts 270°
2026-05-07 14:31 51.46652 -0.48381 98 ft 11 kts 266°
2026-05-07 14:32 51.46616 -0.48463 101 ft 3 kts 199°
2026-05-07 14:32 51.46603 -0.48464 102 ft 0 kts 184°
2026-05-07 14:35 51.46592 -0.48466 101 ft 4 kts 184°
2026-05-07 14:35 51.46557 -0.48467 99 ft 6 kts 181°
2026-05-07 14:35 51.46505 -0.48458 101 ft 9 kts 160°
2026-05-07 14:35 51.46479 -0.48380 101 ft 6 kts 90°
2026-05-07 14:36 51.46479 -0.48373 101 ft 0 kts 90°
2026-05-07 14:37 51.46477 -0.48157 97 ft 56 kts 90°
2026-05-07 14:37 51.46489 -0.45235 325 ft 185 kts 90°
2026-05-07 14:37 51.46499 -0.43013 1045 ft 213 kts 86°
2026-05-07 14:38 51.47002 -0.40682 1752 ft 233 kts 56°
2026-05-07 14:38 51.48086 -0.38640 2134 ft 254 kts 46°
2026-05-07 14:38 51.49358 -0.36594 2891 ft 262 kts 45°
2026-05-07 14:38 51.50649 -0.34504 3823 ft 263 kts 45°
2026-05-07 14:39 51.51741 -0.32162 4731 ft 267 kts 65°
2026-05-07 14:39 51.52443 -0.29367 5504 ft 270 kts 70°
2026-05-07 14:39 51.53063 -0.26508 5908 ft 272 kts 71°
2026-05-07 14:39 51.53673 -0.23625 5995 ft 273 kts 71°
2026-05-07 14:40 51.54370 -0.20782 5993 ft 274 kts 60°
2026-05-07 14:40 51.55697 -0.18638 5994 ft 273 kts 27°
2026-05-07 14:40 51.57511 -0.17907 6017 ft 271 kts
2026-05-07 14:40 51.59388 -0.17554 6020 ft 274 kts
2026-05-07 14:41 51.61257 -0.16879 6072 ft 275 kts 13°
2026-05-07 14:41 51.63070 -0.16109 6071 ft 275 kts 14°
2026-05-07 14:41 51.64925 -0.15284 6075 ft 275 kts 15°
2026-05-07 14:41 51.66796 -0.14435 6072 ft 275 kts 15°
2026-05-07 14:42 51.68639 -0.13593 6267 ft 276 kts 15°
2026-05-07 14:42 51.70471 -0.12751 6922 ft 280 kts 15°
2026-05-07 14:42 51.72278 -0.11561 7890 ft 282 kts 30°
2026-05-07 14:42 51.73775 -0.09523 8863 ft 284 kts 53°
2026-05-07 14:43 51.74680 -0.06705 9813 ft 286 kts 71°
2026-05-07 14:43 51.75245 -0.03584 10551 ft 296 kts 78°
2026-05-07 14:43 51.75645 -0.00180 10898 ft 319 kts 82°
2026-05-07 14:43 51.75964 0.03472 11313 ft 337 kts 84°
2026-05-07 14:44 51.76270 0.07283 12031 ft 344 kts 83°
2026-05-07 14:44 51.76592 0.11128 12869 ft 348 kts 83°
2026-05-07 14:44 51.76940 0.15013 13675 ft 352 kts 83°
2026-05-07 14:44 51.77315 0.18950 14409 ft 356 kts 82°
2026-05-07 14:45 51.77958 0.22846 15045 ft 363 kts 69°
2026-05-07 14:45 51.79167 0.26452 15714 ft 369 kts 54°
2026-05-07 14:45 51.80801 0.29693 16362 ft 374 kts 48°
2026-05-07 14:45 51.82591 0.32717 17005 ft 378 kts 45°
2026-05-07 14:46 51.84526 0.35724 17664 ft 382 kts 43°
2026-05-07 14:46 51.86448 0.38623 18024 ft 385 kts 43°
2026-05-07 14:46 51.88412 0.41580 18076 ft 386 kts 43°
2026-05-07 14:46 51.90373 0.44564 18072 ft 387 kts 43°
2026-05-07 14:47 51.92328 0.47580 18087 ft 388 kts 44°
2026-05-07 14:47 51.94275 0.50619 18415 ft 392 kts 44°
2026-05-07 14:47 51.96238 0.53709 19049 ft 393 kts 44°
2026-05-07 14:47 51.98200 0.56810 19658 ft 395 kts 44°
2026-05-07 14:48 52.00184 0.59951 20205 ft 399 kts 44°
2026-05-07 14:48 52.02244 0.62974 20780 ft 401 kts 38°
2026-05-07 14:48 52.04462 0.65763 21321 ft 405 kts 36°
2026-05-07 14:48 52.05965 0.67570 21689 ft 406 kts 36°
2026-05-07 14:49 52.08271 0.70260 22223 ft 409 kts 35°
2026-05-07 14:49 52.10613 0.72937 22748 ft 413 kts 34°
2026-05-07 14:49 52.12977 0.75618 23268 ft 416 kts 34°
2026-05-07 14:49 52.15366 0.78329 23754 ft 419 kts 34°
2026-05-07 14:50 52.17756 0.81051 24187 ft 422 kts 34°
2026-05-07 14:50 52.20158 0.83800 24633 ft 424 kts 35°
2026-05-07 14:50 52.22574 0.86574 25058 ft 426 kts 35°
2026-05-07 14:50 52.24973 0.89336 25489 ft 428 kts 35°
2026-05-07 14:51 52.27410 0.92150 25905 ft 431 kts 35°
2026-05-07 14:51 52.29848 0.94968 26401 ft 430 kts 36°
2026-05-07 14:51 52.32292 0.97796 26892 ft 431 kts 36°
2026-05-07 14:51 52.34745 1.00640 27307 ft 432 kts 37°
2026-05-07 14:52 52.37204 1.03496 27679 ft 435 kts 36°
2026-05-07 14:52 52.39674 1.06368 28118 ft 436 kts 37°
2026-05-07 14:52 52.42154 1.09255 28526 ft 438 kts 37°
2026-05-07 14:52 52.44644 1.12157 28936 ft 439 kts 37°
2026-05-07 14:53 52.47139 1.15069 29339 ft 441 kts 37°
2026-05-07 14:53 52.49648 1.18002 29722 ft 443 kts 37°
2026-05-07 14:53 52.52161 1.20943 30100 ft 445 kts 37°
2026-05-07 14:53 52.54689 1.23908 30467 ft 446 kts 37°
2026-05-07 14:54 52.57218 1.26877 30758 ft 448 kts 37°
2026-05-07 14:54 52.59760 1.29865 31035 ft 451 kts 37°
2026-05-07 14:54 52.62316 1.32874 31311 ft 453 kts 37°
2026-05-07 14:54 52.64890 1.35908 31577 ft 455 kts 37°
2026-05-07 14:55 52.67436 1.38913 31861 ft 457 kts 37°
2026-05-07 14:55 52.70032 1.41983 32166 ft 459 kts 37°
2026-05-07 14:55 52.72620 1.45046 32541 ft 458 kts 37°
2026-05-07 14:55 52.75207 1.48114 32941 ft 457 kts 37°
2026-05-07 14:56 52.77776 1.51163 33405 ft 453 kts 38°
2026-05-07 14:56 52.80324 1.54191 33966 ft 449 kts 38°
2026-05-07 14:56 52.82856 1.57206 34312 ft 448 kts 38°
2026-05-07 14:56 52.85391 1.60232 34499 ft 450 kts 38°
2026-05-07 14:57 52.87936 1.63275 34708 ft 452 kts 38°
2026-05-07 14:57 52.90487 1.66329 34928 ft 453 kts 37°
2026-05-07 14:57 52.93050 1.69402 35156 ft 455 kts 37°
2026-05-07 14:57 52.95617 1.72483 35374 ft 456 kts 37°
2026-05-07 14:58 52.98189 1.75575 35593 ft 457 kts 37°
2026-05-07 14:58 53.00765 1.78675 35807 ft 458 kts 37°
2026-05-07 14:58 53.03347 1.81788 36057 ft 458 kts 37°
2026-05-07 14:58 53.05929 1.84904 36259 ft 460 kts 37°
2026-05-07 14:59 53.08520 1.88038 36451 ft 461 kts 37°
2026-05-07 14:59 53.11114 1.91179 36650 ft 462 kts 37°
2026-05-07 14:59 53.13681 1.94294 36855 ft 463 kts 37°
2026-05-07 14:59 53.16293 1.97466 37041 ft 465 kts 37°
2026-05-07 15:00 53.18911 2.00651 37250 ft 466 kts 37°
2026-05-07 15:00 53.21532 2.03844 37434 ft 467 kts 37°
2026-05-07 15:00 53.24159 2.07050 37718 ft 466 kts 37°
2026-05-07 15:00 53.26784 2.10209 37979 ft 466 kts 35°
2026-05-07 15:01 53.29450 2.13296 38159 ft 467 kts 34°
2026-05-07 15:01 53.32144 2.16350 38366 ft 468 kts 34°
2026-05-07 15:01 53.34837 2.19382 38543 ft 468 kts 34°
2026-05-07 15:01 53.37516 2.22401 38727 ft 469 kts 34°
2026-05-07 15:02 53.40221 2.25460 38875 ft 470 kts 34°
2026-05-07 15:02 53.42935 2.28544 39040 ft 470 kts 34°
2026-05-07 15:02 53.48369 2.34775 39111 ft 474 kts 35°
2026-05-07 15:03 53.53690 2.41316 39114 ft 473 kts 37°
2026-05-07 15:03 53.58943 2.48002 39116 ft 473 kts 37°
2026-05-07 15:04 53.64194 2.54695 39119 ft 473 kts 37°
2026-05-07 15:04 53.69460 2.61385 39111 ft 473 kts 37°
2026-05-07 15:05 53.74687 2.68030 39116 ft 473 kts 37°
2026-05-07 15:05 53.79941 2.74727 39122 ft 472 kts 37°
2026-05-07 15:06 53.85185 2.81436 39122 ft 472 kts 37°
2026-05-07 15:06 53.90427 2.88165 39120 ft 472 kts 37°
2026-05-07 15:07 53.95665 2.94909 39122 ft 472 kts 37°
2026-05-07 15:07 54.00866 3.01629 39121 ft 472 kts 37°
2026-05-07 15:08 54.06090 3.08400 39118 ft 472 kts 37°
2026-05-07 15:08 54.11318 3.15198 39118 ft 472 kts 37°
2026-05-07 15:09 54.16538 3.22008 39120 ft 472 kts 37°
2026-05-07 15:09 54.21750 3.28830 39124 ft 472 kts 37°
2026-05-07 15:10 54.26958 3.35668 39124 ft 471 kts 37°
2026-05-07 15:10 54.32149 3.42507 39121 ft 471 kts 37°
2026-05-07 15:11 54.37315 3.49335 39121 ft 471 kts 37°
2026-05-07 15:11 54.42512 3.56226 39122 ft 471 kts 37°
2026-05-07 15:12 54.47679 3.63100 39126 ft 471 kts 37°
2026-05-07 15:12 54.52866 3.70024 39124 ft 471 kts 38°
2026-05-07 15:13 54.58003 3.76903 39121 ft 471 kts 38°
2026-05-07 15:13 54.63172 3.83848 39127 ft 471 kts 38°
2026-05-07 15:14 54.68336 3.90809 39119 ft 471 kts 38°
2026-05-07 15:14 54.73502 3.97797 39126 ft 471 kts 38°
2026-05-07 15:15 54.78659 4.04795 39126 ft 471 kts 38°
2026-05-07 15:15 54.83776 4.11762 39126 ft 471 kts 38°
2026-05-07 15:16 54.88566 4.19511 39127 ft 471 kts 46°
2026-05-07 15:16 54.93047 4.27806 39126 ft 471 kts 47°
2026-05-07 15:17 54.97478 4.36242 39127 ft 472 kts 47°
2026-05-07 15:17 55.01900 4.44699 39127 ft 472 kts 47°
2026-05-07 15:18 55.06325 4.53165 39126 ft 472 kts 47°
2026-05-07 15:18 55.10713 4.61573 39127 ft 472 kts 47°
2026-05-07 15:19 55.15126 4.70057 39127 ft 472 kts 47°
2026-05-07 15:19 55.19535 4.78565 39129 ft 472 kts 47°
2026-05-07 15:20 55.23952 4.87117 39127 ft 473 kts 47°
2026-05-07 15:20 55.28357 4.95678 39127 ft 473 kts 47°
2026-05-07 15:21 55.32485 5.04682 39130 ft 473 kts 53°
2026-05-07 15:21 55.36372 5.13997 39128 ft 473 kts 54°
2026-05-07 15:22 55.40189 5.23335 39128 ft 473 kts 54°
2026-05-07 15:22 55.44030 5.32772 39128 ft 474 kts 54°
2026-05-07 15:23 55.47879 5.42243 39128 ft 475 kts 54°
2026-05-07 15:23 55.51696 5.51658 39129 ft 474 kts 54°
2026-05-07 15:24 55.55530 5.61149 39126 ft 474 kts 54°
2026-05-07 15:24 55.59347 5.70638 39130 ft 473 kts 54°
2026-05-07 15:25 55.63149 5.80125 39130 ft 473 kts 54°
2026-05-07 15:25 55.66950 5.89647 39129 ft 474 kts 54°
2026-05-07 15:26 55.70759 5.99226 39127 ft 475 kts 54°
2026-05-07 15:26 55.74560 6.08822 39126 ft 475 kts 54°
2026-05-07 15:27 55.78330 6.18377 39126 ft 475 kts 54°
2026-05-07 15:27 55.86458 6.39110 39128 ft 473 kts 55°
2026-05-07 15:28 56.01486 6.77907 39127 ft 474 kts 55°
2026-05-07 15:28 56.16333 7.16850 39129 ft 474 kts 55°
2026-05-07 15:29 56.30995 7.55930 39122 ft 474 kts 56°
2026-05-07 15:29 56.45703 7.95774 39120 ft 476 kts 56°
2026-05-07 15:30 56.60244 8.35820 39124 ft 476 kts 56°
2026-05-07 15:30 56.74684 8.76253 39113 ft 478 kts 56°
2026-05-07 15:31 56.89043 9.17146 39108 ft 479 kts 57°
2026-05-07 15:31 57.03308 9.58470 39108 ft 479 kts 57°
2026-05-07 15:32 57.17485 10.00257 39103 ft 481 kts 57°
2026-05-07 15:32 57.31459 10.42172 39121 ft 483 kts 57°
2026-05-07 15:33 57.45425 10.84815 39118 ft 483 kts 58°
2026-05-07 15:33 57.59263 11.27835 39123 ft 486 kts 58°
2026-05-07 15:34 57.64453 11.44174 39119 ft 486 kts 58°
2026-05-07 15:34 57.67897 11.55079 39124 ft 486 kts 58°
2026-05-07 15:35 57.71308 11.65929 39105 ft 488 kts 58°
2026-05-07 15:35 57.74742 11.76902 39101 ft 489 kts 58°
2026-05-07 15:36 57.78170 11.87908 39102 ft 489 kts 59°
2026-05-07 15:36 57.81589 11.98937 39102 ft 489 kts 59°
2026-05-07 15:37 57.84987 12.09950 39103 ft 489 kts 59°
2026-05-07 15:37 57.88384 12.21011 39091 ft 489 kts 59°
2026-05-07 15:38 57.91204 12.30235 39088 ft 490 kts 59°
2026-05-07 15:38 57.94598 12.41382 39092 ft 491 kts 59°
2026-05-07 15:39 57.97988 12.52568 39096 ft 491 kts 59°
2026-05-07 15:39 58.01368 12.63779 39095 ft 491 kts 59°
2026-05-07 15:40 58.04734 12.74995 39091 ft 491 kts 59°
2026-05-07 15:40 58.08069 12.86161 39092 ft 491 kts 59°
2026-05-07 15:41 58.11415 12.97419 39089 ft 491 kts 59°
2026-05-07 15:41 58.14751 13.08693 39093 ft 491 kts 59°
2026-05-07 15:42 58.18076 13.19988 39091 ft 491 kts 59°
2026-05-07 15:42 58.21396 13.31320 39092 ft 490 kts 60°
2026-05-07 15:43 58.24677 13.42574 39095 ft 491 kts 60°
2026-05-07 15:43 58.27992 13.54000 39094 ft 491 kts 60°
2026-05-07 15:44 58.31261 13.65323 39109 ft 491 kts 60°
2026-05-07 15:44 58.34544 13.76751 39083 ft 493 kts 60°
2026-05-07 15:45 58.37828 13.88238 39093 ft 493 kts 60°
2026-05-07 15:45 58.41099 13.99742 39098 ft 493 kts 60°
2026-05-07 15:46 58.45992 14.17056 39101 ft 493 kts 60°
2026-05-07 15:47 58.49235 14.28603 39102 ft 494 kts 60°
2026-05-07 15:47 58.52446 14.40096 39112 ft 494 kts 60°
2026-05-07 15:48 58.55681 14.51730 39104 ft 496 kts 61°
2026-05-07 15:48 58.58913 14.63419 39099 ft 496 kts 61°
2026-05-07 15:49 58.62132 14.75121 39097 ft 495 kts 61°
2026-05-07 15:49 58.65337 14.86830 39095 ft 495 kts 61°
2026-05-07 15:50 58.68524 14.98533 39086 ft 495 kts 61°
2026-05-07 15:50 58.71714 15.10310 39106 ft 495 kts 61°
2026-05-07 15:51 58.74893 15.22106 39079 ft 497 kts 62°
2026-05-07 15:51 58.78068 15.33952 39069 ft 498 kts 61°
2026-05-07 15:52 58.81239 15.45842 39073 ft 498 kts 62°
2026-05-07 15:52 58.84399 15.57753 39071 ft 499 kts 62°
2026-05-07 15:53 58.87541 15.69663 39067 ft 499 kts 62°
2026-05-07 15:53 58.90661 15.81546 39067 ft 499 kts 62°
2026-05-07 15:54 58.93790 15.93530 39071 ft 500 kts 62°
2026-05-07 15:54 58.96929 16.05613 39071 ft 502 kts 62°
2026-05-07 15:55 59.00054 16.17713 39073 ft 502 kts 62°
2026-05-07 15:55 59.03174 16.29856 39076 ft 503 kts 62°
2026-05-07 15:56 59.06289 16.42047 39072 ft 503 kts 62°
2026-05-07 15:56 59.09366 16.54157 39074 ft 503 kts 62°
2026-05-07 15:57 59.12457 16.66387 39081 ft 503 kts 62°
2026-05-07 15:57 59.15536 16.78637 39077 ft 504 kts 62°
2026-05-07 15:58 59.18615 16.90957 39072 ft 505 kts 63°
2026-05-07 15:58 59.21680 17.03289 39083 ft 505 kts 63°
2026-05-07 15:59 59.24734 17.15647 39083 ft 505 kts 63°
2026-05-07 15:59 59.27760 17.27957 39086 ft 505 kts 63°
2026-05-07 16:00 59.30791 17.40362 39105 ft 505 kts 63°
2026-05-07 16:00 59.33806 17.52776 39089 ft 497 kts 63°
2026-05-07 16:01 59.36714 17.64818 39089 ft 484 kts 63°
2026-05-07 16:01 59.39584 17.76755 39077 ft 483 kts 64°
2026-05-07 16:02 59.42435 17.88673 39102 ft 482 kts 64°
2026-05-07 16:02 59.45273 18.00608 39102 ft 482 kts 64°
2026-05-07 16:03 59.48079 18.12474 39100 ft 482 kts 64°
2026-05-07 16:03 59.50899 18.24468 39088 ft 483 kts 64°
2026-05-07 16:04 59.53714 18.36507 39090 ft 484 kts 64°
2026-05-07 16:04 59.56522 18.48585 39095 ft 484 kts 64°
2026-05-07 16:05 59.59318 18.60681 39113 ft 485 kts 64°
2026-05-07 16:05 59.62114 18.72844 39113 ft 486 kts 64°
2026-05-07 16:06 59.64898 18.85027 39116 ft 487 kts 65°
2026-05-07 16:06 59.67653 18.97155 39137 ft 487 kts 65°
2026-05-07 16:07 59.70415 19.09383 39121 ft 486 kts 65°
2026-05-07 16:07 59.73164 19.21621 39124 ft 486 kts 65°
2026-05-07 16:08 59.75900 19.33876 39121 ft 486 kts 65°
2026-05-07 16:08 59.78629 19.46165 39124 ft 486 kts 65°
2026-05-07 16:09 59.81340 19.58452 39127 ft 486 kts 65°
2026-05-07 16:09 59.84045 19.70778 39128 ft 486 kts 65°
2026-05-07 16:10 59.86737 19.83120 39133 ft 486 kts 65°
2026-05-07 16:10 59.89422 19.95505 39127 ft 487 kts 66°
2026-05-07 16:11 59.92077 20.07821 39127 ft 487 kts 66°
2026-05-07 16:11 59.94737 20.20236 39125 ft 487 kts 66°
2026-05-07 16:12 59.97391 20.32691 39123 ft 487 kts 66°
2026-05-07 16:12 60.00034 20.45175 39121 ft 487 kts 66°
2026-05-07 16:13 60.02676 20.57724 39118 ft 493 kts 66°
2026-05-07 16:13 60.05333 20.70425 39118 ft 496 kts 66°
2026-05-07 16:14 60.07968 20.83103 39119 ft 496 kts 67°
2026-05-07 16:14 60.10475 20.95235 39089 ft 496 kts 67°
2026-05-07 16:14 60.11799 21.01669 38813 ft 504 kts 67°
2026-05-07 16:15 60.13146 21.08235 38223 ft 512 kts 67°
2026-05-07 16:15 60.14515 21.14931 37506 ft 525 kts 67°
2026-05-07 16:15 60.15908 21.21768 36724 ft 532 kts 66°
2026-05-07 16:15 60.17299 21.28620 35978 ft 526 kts 66°
2026-05-07 16:16 60.18676 21.35431 35244 ft 527 kts 66°
2026-05-07 16:16 60.19994 21.42297 34581 ft 528 kts 72°
2026-05-07 16:16 60.20823 21.49502 33840 ft 527 kts 76°
2026-05-07 16:16 60.21613 21.56520 32926 ft 520 kts 76°
2026-05-07 16:17 60.22402 21.63708 31992 ft 515 kts 76°
2026-05-07 16:17 60.23152 21.70713 31109 ft 509 kts 76°
2026-05-07 16:17 60.23879 21.77642 30254 ft 504 kts 76°
2026-05-07 16:17 60.24581 21.84425 29258 ft 498 kts 76°
2026-05-07 16:18 60.25276 21.91207 28330 ft 491 kts 76°
2026-05-07 16:18 60.25957 21.97887 27343 ft 483 kts 77°
2026-05-07 16:18 60.26623 22.04463 26434 ft 475 kts 77°
2026-05-07 16:18 60.27277 22.10942 25540 ft 468 kts 77°
2026-05-07 16:19 60.27919 22.17327 24748 ft 461 kts 77°
2026-05-07 16:19 60.28549 22.23623 24077 ft 454 kts 77°
2026-05-07 16:19 60.29168 22.29846 23475 ft 451 kts 77°
2026-05-07 16:19 60.29777 22.35987 22867 ft 447 kts 77°
2026-05-07 16:20 60.30381 22.42119 22259 ft 442 kts 78°
2026-05-07 16:20 60.30975 22.48170 21666 ft 437 kts 78°
2026-05-07 16:20 60.31559 22.54157 21136 ft 433 kts 78°
2026-05-07 16:20 60.32129 22.60024 20561 ft 430 kts 78°
2026-05-07 16:21 60.32698 22.65919 20009 ft 426 kts 78°
2026-05-07 16:21 60.33259 22.71769 19449 ft 421 kts 78°
2026-05-07 16:21 60.33809 22.77540 18887 ft 416 kts 78°
2026-05-07 16:21 60.34348 22.83208 18399 ft 412 kts 78°
2026-05-07 16:22 60.34884 22.88881 17845 ft 402 kts 78°
2026-05-07 16:22 60.35398 22.94343 17369 ft 392 kts 78°
2026-05-07 16:22 60.35901 22.99709 16908 ft 381 kts 78°
2026-05-07 16:22 60.36379 23.04848 16463 ft 364 kts 78°
2026-05-07 16:23 60.36839 23.09808 16040 ft 355 kts 78°
2026-05-07 16:23 60.37291 23.14688 15600 ft 351 kts 78°
2026-05-07 16:23 60.37735 23.19511 15165 ft 348 kts 78°
2026-05-07 16:23 60.38173 23.24295 14774 ft 345 kts 78°
2026-05-07 16:24 60.38608 23.29062 14396 ft 345 kts 78°
2026-05-07 16:24 60.39041 23.33818 14037 ft 342 kts 78°
2026-05-07 16:24 60.39325 23.36956 13786 ft 340 kts 78°
2026-05-07 16:24 60.39749 23.41649 13370 ft 337 kts 78°
2026-05-07 16:25 60.40301 23.47795 12851 ft 332 kts 79°
2026-05-07 16:25 60.40709 23.52360 12514 ft 327 kts 79°
2026-05-07 16:25 60.40980 23.55400 12310 ft 323 kts 79°
2026-05-07 16:25 60.41370 23.59787 11993 ft 318 kts 79°
2026-05-07 16:26 60.41758 23.64176 11682 ft 315 kts 79°
2026-05-07 16:26 60.42140 23.68523 11367 ft 311 kts 79°
2026-05-07 16:26 60.42513 23.72779 11070 ft 305 kts 79°
2026-05-07 16:26 60.42882 23.76998 10769 ft 301 kts 79°
2026-05-07 16:27 60.43244 23.81144 10468 ft 297 kts 79°
2026-05-07 16:27 60.43599 23.85242 10176 ft 295 kts 79°
2026-05-07 16:27 60.43898 23.89330 10068 ft 293 kts 82°
2026-05-07 16:27 60.44146 23.93404 10060 ft 291 kts 83°
2026-05-07 16:28 60.44379 23.97414 10065 ft 280 kts 83°
2026-05-07 16:28 60.44602 24.01288 10033 ft 275 kts 82°
2026-05-07 16:28 60.44822 24.05128 9826 ft 274 kts 83°
2026-05-07 16:28 60.45042 24.08967 9407 ft 275 kts 82°
2026-05-07 16:29 60.45263 24.12835 8932 ft 277 kts 82°
2026-05-07 16:29 60.45483 24.16717 8429 ft 279 kts 82°
2026-05-07 16:29 60.45702 24.20602 7893 ft 274 kts 83°
2026-05-07 16:29 60.45897 24.24358 7467 ft 262 kts 82°
2026-05-07 16:30 60.46070 24.27943 7115 ft 249 kts 83°
2026-05-07 16:30 60.46262 24.31336 6711 ft 243 kts 82°
2026-05-07 16:30 60.46464 24.34734 6330 ft 243 kts 81°
2026-05-07 16:30 60.46638 24.38155 5937 ft 244 kts 81°
2026-05-07 16:31 60.46810 24.41559 5552 ft 242 kts 81°
2026-05-07 16:31 60.46987 24.44942 5163 ft 241 kts 81°
2026-05-07 16:31 60.47176 24.48292 4798 ft 238 kts 81°
2026-05-07 16:31 60.47363 24.51578 4438 ft 234 kts 81°
2026-05-07 16:32 60.47557 24.54830 4073 ft 231 kts 82°
2026-05-07 16:32 60.47772 24.58046 3716 ft 230 kts 82°
2026-05-07 16:32 60.48008 24.61243 3404 ft 229 kts 81°
2026-05-07 16:32 60.48262 24.64433 3083 ft 230 kts 82°
2026-05-07 16:33 60.48532 24.67627 2773 ft 229 kts 83°
2026-05-07 16:33 60.48514 24.70814 2448 ft 224 kts 102°
2026-05-07 16:33 60.48058 24.73758 2099 ft 214 kts 116°
2026-05-07 16:33 60.47440 24.76410 1981 ft 205 kts 121°
2026-05-07 16:34 60.46788 24.78973 1991 ft 204 kts 122°
2026-05-07 16:34 60.46058 24.81405 1969 ft 202 kts 129°
2026-05-07 16:34 60.45142 24.83460 1996 ft 193 kts 141°
2026-05-07 16:34 60.44103 24.85001 1996 ft 180 kts 153°
2026-05-07 16:35 60.42997 24.86166 1992 ft 178 kts 156°
2026-05-07 16:35 60.41900 24.87296 1995 ft 178 kts 156°
2026-05-07 16:35 60.40799 24.88438 1952 ft 177 kts 157°
2026-05-07 16:35 60.39726 24.89560 1756 ft 169 kts 157°
2026-05-07 16:36 60.38717 24.90605 1500 ft 158 kts 158°
2026-05-07 16:36 60.37772 24.91577 1289 ft 147 kts 158°
2026-05-07 16:36 60.36890 24.92483 1075 ft 138 kts 158°
2026-05-07 16:36 60.36057 24.93340 889 ft 132 kts 157°
2026-05-07 16:37 60.35244 24.94176 699 ft 131 kts 155°
2026-05-07 16:37 60.34420 24.95023 520 ft 134 kts 156°
2026-05-07 16:37 60.33585 24.95875 322 ft 135 kts 156°
2026-05-07 16:37 60.32754 24.96739 176 ft 133 kts 155°
2026-05-07 16:38 60.32091 24.97398 175 ft 83 kts 153°
2026-05-07 16:38 60.31650 24.97855 180 ft 62 kts 153°
2026-05-07 16:38 60.31450 24.97983 183 ft 5 kts 213°
2026-05-07 16:38 60.31433 24.97946 192 ft 3 kts 232°
2026-05-07 16:39 60.31423 24.97911 190 ft 3 kts 244°
2026-05-07 16:39 60.31413 24.97852 185 ft 6 kts 256°
2026-05-07 16:39 60.31423 24.97769 201 ft 6 kts 311°
2026-05-07 16:39 60.31465 24.97720 184 ft 8 kts 332°
2026-05-07 16:40 60.31527 24.97654 183 ft 12 kts 332°
2026-05-07 16:40 60.31606 24.97571 182 ft 13 kts 332°
2026-05-07 16:40 60.31696 24.97478 181 ft 16 kts 333°
2026-05-07 16:40 60.31804 24.97367 180 ft 19 kts 332°
2026-05-07 16:41 60.31928 24.97236 178 ft 22 kts 332°
2026-05-07 16:41 60.32067 24.97092 176 ft 22 kts 333°
2026-05-07 16:41 60.32186 24.96967 174 ft 12 kts 332°
2026-05-07 16:41 60.32271 24.96877 173 ft 15 kts 333°
2026-05-07 16:42 60.32294 24.96767 172 ft 4 kts 231°
2026-05-07 16:42 60.32271 24.96713 171 ft 7 kts 228°
2026-05-07 16:42 60.32228 24.96616 171 ft 12 kts 227°
2026-05-07 16:42 60.32160 24.96468 169 ft 16 kts 227°
2026-05-07 16:43 60.32077 24.96286 168 ft 20 kts 227°
2026-05-07 16:43 60.31979 24.96070 167 ft 22 kts 227°
2026-05-07 16:43 60.31875 24.95837 165 ft 21 kts 228°
2026-05-07 16:43 60.31784 24.95638 164 ft 17 kts 227°
2026-05-07 16:44 60.31700 24.95561 163 ft 13 kts 162°
2026-05-07 16:44 60.31631 24.95677 164 ft 10 kts 133°
2026-05-07 16:44 60.31594 24.95749 165 ft 6 kts 137°
2026-05-07 16:44 60.31561 24.95812 166 ft 6 kts 136°
2026-05-07 16:45 60.31560 24.95814 166 ft 0 kts 136°